Location: Aulnoy
(48.8410°N, 3.0967°E)
Time: 00:14:37
(UTC+00:00)

Cosmos 1892 - Pass Details

Date: 09 February 2023
Orbit: 485 x 506 km, 82.5° (Epoch: 01 April)

Event Time Altitude Azimuth Distance (km) Brightness Sun altitude
Rises 17:39:44 0° 203° (SSW) 2,583 6.8 -7.4°
Reaches altitude 10° 17:41:53 10° 209° (SSW) 1,709 6.0 -7.7°
Maximum altitude 17:45:30 46° 284° (WNW) 689 3.8 -8.3°
Drops below altitude 10° 17:49:11 10° 359° (N) 1,739 5.3 -8.9°
Sets 17:51:24 0° 5° (N) 2,634 6.1 -9.2°
